FW2888 Weather Reports


Display with metric or nautical units.
time (UTC)temp
F
wind
direction
speed
MPH
gust
MPH
rain 1hr
in
rain 24hr
in
rain mn
in
humidity
%
barometer
mb
20260507123227 57 87 1.0 4.0 0.00 0.12 0.04 81 1005.3
20260507122729 57 281 1.0 3.0 0.00 0.12 0.04 82 1005.4
20260507122224 56 328 1.0 3.0 0.00 0.12 0.04 82 1005.4
20260507121725 56 276 1.0 4.0 0.00 0.12 0.04 83 1005.2
20260507121222 56 291 1.0 4.0 0.00 0.12 0.04 82 1005.1
20260507120220 56 330 0.0 3.0 0.00 0.12 0.04 83 1004.7
20260507115218 56 252 1.0 4.0 0.00 0.12 0.04 85 1004.9
20260507114718 55 341 1.0 4.0 0.00 0.12 0.04 84 1005.0
20260507113715 55 232 0.0 4.0 0.00 0.12 0.04 85 1005.0
20260507113215 55 346 0.0 4.0 0.00 0.12 0.04 85 1005.0
20260507112209 55 254 1.0 3.0 0.00 0.12 0.04 85 1004.6
20260507111707 55 347 1.0 3.0 0.00 0.12 0.04 85 1004.8
20260507111203 55 318 1.0 3.0 0.00 0.12 0.04 85 1004.7
20260507110703 55 320 1.0 3.0 0.00 0.12 0.04 85 1004.8
20260507110201 55 0 1.0 5.0 0.00 0.12 0.04 86 1004.9
20260507105700 55 301 1.0 5.0 0.00 0.12 0.04 86 1004.8
20260507105158 55 299 0.0 2.0 0.00 0.12 0.04 87 1004.7
20260507104659 55 10 0.0 2.0 0.00 0.12 0.04 87 1004.7
20260507104159 54 309 0.0 2.0 0.00 0.12 0.04 87 1004.6
20260507103656 54 299 0.0 2.0 0.00 0.12 0.04 87 1004.7
20260507103149 54 320 0.0 1.0 0.00 0.12 0.04 87 1004.5
20260507102649 54 320 0.0 5.0 0.00 0.12 0.04 87 1004.5
20260507102150 54 322 0.0 5.0 0.00 0.12 0.04 87 1004.2
20260507101651 54 343 0.0 2.0 0.00 0.12 0.04 87 1004.3
20260507101149 54 303 0.0 2.0 0.00 0.12 0.04 88 1004.2
20260507100649 54 14 0.0 2.0 0.00 0.12 0.04 87 1004.2
20260507100149 54 324 0.0 3.0 0.00 0.12 0.04 87 1004.3
20260507095150 54 342 0.0 2.0 0.00 0.12 0.04 87 1004.4
20260507094646 54 320 0.0 2.0 0.00 0.12 0.04 87 1004.3
20260507094145 54 329 0.0 1.0 0.00 0.12 0.04 88 1004.3
20260507093645 54 323 0.0 2.0 0.00 0.12 0.04 87 1004.2
20260507093146 54 324 0.0 3.0 0.00 0.12 0.04 87 1004.2
20260507092646 54 308 0.0 3.0 0.00 0.12 0.04 87 1004.2
20260507092146 54 97 0.0 1.0 0.01 0.12 0.04 88 1004.2
20260507091645 54 97 0.0 1.0 0.01 0.12 0.04 88 1004.4
20260507091145 54 324 0.0 3.0 0.01 0.12 0.04 88 1004.1
20260507090145 54 314 0.0 3.0 0.01 0.12 0.04 89 1003.8
20260507085145 54 320 0.0 1.0 0.01 0.12 0.04 89 1003.7
20260507084144 54 307 0.0 2.0 0.01 0.12 0.04 89 1003.9
20260507083647 54 302 0.0 2.0 0.01 0.12 0.04 88 1003.9
20260507083145 55 277 0.0 2.0 0.01 0.12 0.04 88 1003.9
20260507082646 55 277 0.0 2.0 0.01 0.12 0.04 88 1004.0
20260507082145 55 278 0.0 2.0 0.00 0.11 0.03 87 1004.2
20260507081645 55 353 0.0 3.0 0.00 0.11 0.03 86 1004.5
20260507080145 56 145 2.0 8.0 0.00 0.11 0.03 85 1003.6
20260507075647 56 293 2.0 8.0 0.00 0.11 0.03 87 1003.6
20260507075146 56 297 2.0 8.0 0.00 0.11 0.03 88 1003.6
20260507074647 56 0 1.0 4.0 0.00 0.11 0.03 89 1003.5
20260507074146 56 342 1.0 4.0 0.00 0.11 0.03 89 1003.5
20260507073642 56 342 0.0 4.0 0.00 0.11 0.03 89 1003.5
20260507073142 56 226 1.0 4.0 0.00 0.11 0.03 89 1003.3
20260507072639 56 222 1.0 4.0 0.00 0.11 0.03 90 1003.1
20260507072139 56 0 1.0 4.0 0.00 0.11 0.03 90 1003.2
20260507071638 56 319 1.0 4.0 0.00 0.11 0.03 90 1003.3
20260507071138 56 318 1.0 3.0 0.00 0.11 0.03 89 1003.4
20260507070633 56 355 1.0 3.0 0.00 0.11 0.03 89 1003.3
20260507070136 56 335 1.0 6.0 0.00 0.11 0.03 89 1003.5
20260507065632 56 333 1.0 6.0 0.00 0.11 0.03 90 1003.3
20260507064632 57 304 1.0 5.0 0.01 0.11 0.03 90 1003.2
20260507064132 57 74 2.0 4.0 0.01 0.11 0.03 90 1003.4
20260507063126 57 0 2.0 5.0 0.01 0.11 0.03 91 1003.7
20260507061627 58 320 2.0 6.0 0.02 0.11 0.03 91 1003.1
20260507061126 58 0 1.0 4.0 0.02 0.11 0.03 91 1003.0
20260507060625 58 339 1.0 3.0 0.02 0.11 0.03 90 1002.6
20260507060124 58 16 1.0 3.0 0.02 0.11 0.03 90 1002.1
20260507055623 58 330 0.0 3.0 0.01 0.10 0.03 90 1002.1
20260507055026 58 279 0.0 2.0 0.01 0.10 0.02 90 1001.9
20260507054527 58 170 1.0 5.0 0.01 0.10 0.02 90 1002.0
20260507054027 58 229 1.0 5.0 0.02 0.10 0.02 89 1002.1
20260507053528 58 84 1.0 3.0 0.02 0.10 0.02 89 1002.3
20260507053025 59 325 1.0 3.0 0.02 0.10 0.02 89 1002.9
20260507052525 59 301 1.0 6.0 0.02 0.10 0.02 89 1003.2
20260507051523 60 0 1.0 5.0 0.01 0.09 0.01 88 1003.4
20260507051023 60 88 1.0 8.0 0.01 0.09 0.01 88 1003.4
20260507050020 61 272 2.0 4.0 0.01 0.09 0.01 88 1003.3
20260507045020 63 305 1.0 5.0 0.01 0.09 0.01 88 1003.1
20260507044521 63 56 2.0 6.0 0.01 0.09 0.01 88 1003.0
20260507044020 64 79 2.0 6.0 0.00 0.08 0.00 88 1002.9
20260507043520 64 60 1.0 5.0 0.00 0.08 0.00 89 1003.2
20260507043016 65 343 0.0 2.0 0.00 0.08 0.00 89 1003.0
20260507042515 65 214 0.0 2.0 0.00 0.08 0.00 89 1002.7
20260507042016 65 214 0.0 2.0 0.00 0.08 0.00 88 1002.6
20260507041516 65 214 0.0 1.0 0.00 0.08 0.00 88 1002.3
20260507041014 65 214 0.0 1.0 0.00 0.08 0.00 87 1002.4
20260507040515 65 214 0.0 1.0 0.00 0.08 0.00 87 1002.7
20260507040015 65 214 0.0 0.0 0.00 0.08 0.00 87 1002.6
20260507035514 65 214 0.0 0.0 0.00 0.08 0.08 87 1002.5
20260507035016 65 214 0.0 0.0 0.00 0.08 0.08 87 1002.4
20260507034511 65 214 0.0 0.0 0.00 0.08 0.08 86 1002.4
20260507034010 65 214 0.0 0.0 0.00 0.08 0.08 86 1002.3
20260507033510 65 214 0.0 0.0 0.00 0.08 0.08 85 1002.3
20260507033011 65 214 0.0 0.0 0.00 0.08 0.08 85 1002.1
20260507032511 66 214 0.0 1.0 0.00 0.08 0.08 85 1002.0
20260507032010 66 214 0.0 1.0 0.00 0.08 0.08 84 1002.0
20260507031510 66 214 0.0 1.0 0.00 0.08 0.08 84 1002.3
20260507031010 66 214 0.0 0.0 0.00 0.08 0.08 84 1002.6
20260507030511 66 214 0.0 0.0 0.00 0.08 0.08 84 1002.5
20260507030007 66 214 0.0 0.0 0.00 0.08 0.08 84 1002.3
20260507025506 66 214 0.0 0.0 0.00 0.08 0.08 85 1002.1
20260507025006 66 214 0.0 0.0 0.00 0.08 0.08 85 1002.2
20260507024506 65 214 0.0 0.0 0.00 0.08 0.08 85 1002.2
20260507024003 65 214 0.0 0.0 0.00 0.08 0.08 85 1002.1
20260507023504 65 214 0.0 0.0 0.00 0.08 0.08 85 1001.8
20260507023004 65 214 0.0 0.0 0.00 0.08 0.08 85 1001.6
20260507022504 65 214 0.0 0.0 0.00 0.08 0.08 85 1001.4
20260507022004 65 214 0.0 0.0 0.00 0.08 0.08 84 1001.5
20260507021504 66 214 0.0 0.0 0.00 0.08 0.08 83 1001.5
20260507021007 66 214 0.0 0.0 0.00 0.08 0.08 84 1001.6
20260507020504 65 214 0.0 0.0 0.00 0.08 0.08 85 1001.8
20260507015501 65 214 0.0 1.0 0.00 0.08 0.08 85 1001.9
20260507015001 65 214 0.0 1.0 0.00 0.08 0.08 85 1001.9
20260507014459 65 276 0.0 0.0 0.00 0.08 0.08 84 1002.0
20260507014002 65 276 0.0 0.0 0.00 0.08 0.08 83 1002.1
20260507013459 66 276 0.0 1.0 0.00 0.08 0.08 83 1002.2
20260507013000 66 276 0.0 1.0 0.00 0.08 0.08 83 1002.3
20260507012500 66 276 0.0 1.0 0.00 0.08 0.08 83 1002.1
20260507012001 66 276 0.0 0.0 0.00 0.08 0.08 83 1002.3
20260507011000 66 276 0.0 0.0 0.00 0.08 0.08 82 1002.0
20260507010501 67 276 0.0 1.0 0.00 0.08 0.08 81 1002.0
20260507005457 67 353 0.0 2.0 0.00 0.08 0.08 81 1002.0
20260507005000 67 103 0.0 1.0 0.00 0.08 0.08 81 1001.9
20260507004457 67 160 0.0 1.0 0.00 0.08 0.08 80 1001.7
20260507003952 68 170 0.0 2.0 0.00 0.08 0.08 80 1001.8
20260507003449 68 270 0.0 2.0 0.00 0.08 0.08 80 1001.7
20260507002953 68 272 0.0 4.0 0.00 0.08 0.08 80 1001.8
20260507002447 68 212 0.0 4.0 0.00 0.08 0.08 80 1001.8
20260507001948 68 277 0.0 4.0 0.00 0.08 0.08 79 1001.8
20260507001446 68 310 0.0 4.0 0.00 0.08 0.08 80 1002.0
20260507000946 68 142 0.0 4.0 0.00 0.08 0.08 79 1001.8
20260506235940 69 222 0.0 6.0 0.00 0.08 0.08 79 1001.8
20260506235441 69 263 0.0 6.0 0.00 0.08 0.08 79 1001.7
20260506234939 69 285 0.0 2.0 0.00 0.08 0.08 78 1001.6
20260506234438 69 285 0.0 2.0 0.00 0.08 0.08 78 1001.5
20260506233938 69 234 0.0 2.0 0.00 0.08 0.08 78 1001.3
20260506233436 70 170 0.0 2.0 0.00 0.08 0.08 78 1001.2
20260506232434 70 73 1.0 6.0 0.00 0.08 0.08 77 1001.3
20260506231935 70 246 1.0 6.0 0.00 0.08 0.08 77 1001.1
20260506231432 70 212 1.0 4.0 0.00 0.08 0.08 77 1001.2
20260506230428 70 308 1.0 5.0 0.00 0.08 0.08 76 1001.2
20260506225927 70 217 1.0 7.0 0.00 0.08 0.08 76 1001.1
20260506225428 70 239 1.0 7.0 0.00 0.08 0.08 75 1001.1
20260506224922 71 260 1.0 8.0 0.00 0.08 0.08 75 1001.2
20260506224422 71 49 1.0 8.0 0.00 0.08 0.08 75 1001.2
20260506223921 71 16 1.0 6.0 0.00 0.08 0.08 75 1001.1
20260506223422 71 188 1.0 6.0 0.00 0.08 0.08 74 1001.2
20260506222917 71 309 2.0 7.0 0.00 0.08 0.08 74 1001.2
20260506222418 71 282 2.0 7.0 0.00 0.08 0.08 74 1001.2
20260506221918 71 135 1.0 7.0 0.00 0.08 0.08 73 1001.3
20260506215917 72 217 2.0 9.0 0.00 0.08 0.08 72 1001.2
20260506215415 72 254 1.0 5.0 0.00 0.08 0.08 73 1001.0
20260506214916 72 348 1.0 5.0 0.00 0.08 0.08 74 1001.0
20260506214416 72 264 2.0 8.0 0.00 0.08 0.08 72 1001.1
20260506213914 72 72 2.0 8.0 0.00 0.08 0.08 73 1001.0
20260506213415 72 10 2.0 6.0 0.00 0.08 0.08 73 1001.2
20260506212913 72 176 2.0 6.0 0.00 0.08 0.08 72 1001.2
20260506212413 72 332 2.0 8.0 0.00 0.08 0.08 73 1001.0
20260506211913 72 56 2.0 10.0 0.00 0.08 0.08 72 1001.0
20260506211410 72 289 2.0 10.0 0.00 0.08 0.08 73 1001.1
20260506210912 71 273 1.0 6.0 0.00 0.08 0.08 74 1001.0
20260506210411 71 164 1.0 6.0 0.00 0.08 0.08 74 1001.0
20260506205907 71 66 2.0 9.0 0.00 0.08 0.08 74 1001.0
20260506205409 71 186 3.0 9.0 0.00 0.08 0.08 73 1001.1
20260506204907 71 302 2.0 8.0 0.00 0.08 0.08 73 1001.0
20260506204408 71 72 2.0 10.0 0.00 0.08 0.08 74 1001.1
20260506203908 71 192 2.0 10.0 0.00 0.08 0.08 74 1001.1
20260506202908 70 293 2.0 7.0 0.00 0.08 0.08 74 1001.1
20260506202408 70 323 2.0 8.0 0.00 0.08 0.08 74 1001.0
20260506201908 70 187 2.0 9.0 0.00 0.08 0.08 75 1001.3
20260506200907 70 145 2.0 6.0 0.00 0.08 0.08 76 1001.2
20260506200409 69 188 2.0 6.0 0.00 0.08 0.08 77 1001.2
20260506195907 68 176 2.0 7.0 0.00 0.08 0.08 78 1001.2
20260506195407 68 143 2.0 7.0 0.00 0.08 0.08 77 1001.2
20260506194908 68 36 1.0 7.0 0.00 0.08 0.08 78 1001.2
20260506194405 68 279 2.0 7.0 0.00 0.08 0.08 78 1001.3
20260506193904 67 336 2.0 7.0 0.00 0.08 0.08 78 1001.3
20260506193406 67 325 1.0 6.0 0.00 0.08 0.08 79 1001.5
20260506192401 68 191 1.0 7.0 0.01 0.08 0.08 79 1001.9
20260506191902 67 320 2.0 7.0 0.01 0.08 0.08 79 1001.8
20260506191402 67 284 3.0 7.0 0.01 0.08 0.08 78 1001.8
20260506190901 67 216 3.0 7.0 0.01 0.08 0.08 78 1001.9
20260506190400 67 290 2.0 7.0 0.01 0.08 0.08 78 1002.0
20260506185858 67 35 2.0 6.0 0.01 0.08 0.08 78 1002.0
20260506184858 68 309 2.0 5.0 0.01 0.08 0.08 80 1002.2
20260506184356 67 335 3.0 8.0 0.01 0.08 0.08 79 1002.2
20260506183354 67 334 3.0 10.0 0.01 0.08 0.08 78 1002.0
20260506182852 68 43 2.0 9.0 0.00 0.07 0.07 79 1002.1
20260506182351 68 196 2.0 9.0 0.00 0.07 0.07 78 1002.3
20260506181850 67 183 2.0 8.0 0.00 0.07 0.07 79 1002.4
20260506181349 67 15 2.0 8.0 0.00 0.07 0.07 79 1002.5
20260506180849 67 14 2.0 8.0 0.00 0.07 0.07 79 1002.3
20260506175851 67 187 2.0 4.0 0.00 0.07 0.07 80 1002.4
20260506175351 67 137 2.0 10.0 0.00 0.07 0.07 79 1002.4
20260506174851 67 15 3.0 10.0 0.00 0.07 0.07 79 1002.3
20260506173850 66 43 2.0 6.0 0.00 0.07 0.07 81 1002.5
20260506173349 66 106 2.0 6.0 0.00 0.07 0.07 81 1002.5
20260506172848 66 322 1.0 5.0 0.00 0.07 0.07 82 1002.6
20260506172348 66 93 2.0 9.0 0.00 0.07 0.07 82 1002.6
20260506171848 66 324 2.0 9.0 0.00 0.07 0.07 82 1002.6
20260506171349 66 49 2.0 8.0 0.00 0.07 0.07 82 1002.5
20260506170846 66 311 2.0 8.0 0.00 0.07 0.07 82 1002.5
20260506170346 66 112 2.0 7.0 0.00 0.07 0.07 82 1002.5
20260506165345 66 35 2.0 8.0 0.00 0.07 0.07 82 1002.6
20260506164842 66 201 2.0 7.0 0.00 0.07 0.07 84 1002.7
20260506164342 65 104 3.0 10.0 0.00 0.07 0.07 83 1002.8
20260506163844 65 334 2.0 10.0 0.00 0.07 0.07 83 1002.7
20260506161843 65 119 2.0 5.0 0.00 0.07 0.07 86 1003.4
20260506161343 64 253 2.0 5.0 0.00 0.07 0.07 87 1003.1
20260506160842 64 249 2.0 7.0 0.00 0.07 0.07 87 1003.2
20260506160342 63 177 1.0 7.0 0.00 0.07 0.07 88 1003.0
20260506155843 63 74 1.0 4.0 0.01 0.07 0.07 88 1003.1
20260506155342 63 183 1.0 4.0 0.01 0.07 0.07 88 1003.1
20260506154842 63 18 1.0 6.0 0.02 0.07 0.07 88 1003.1
20260506154344 63 179 1.0 6.0 0.02 0.07 0.07 88 1003.2
20260506153839 63 191 1.0 4.0 0.02 0.07 0.07 88 1003.1
20260506153338 63 42 1.0 3.0 0.02 0.07 0.07 89 1003.3
20260506152837 62 299 1.0 5.0 0.03 0.07 0.07 89 1003.3
20260506152337 62 105 1.0 5.0 0.05 0.07 0.07 89 1003.0
20260506151837 62 237 1.0 7.0 0.05 0.07 0.07 89 1003.0
20260506150835 62 130 1.0 6.0 0.05 0.07 0.07 88 1003.0
20260506145836 62 203 2.0 6.0 0.04 0.06 0.06 88 1003.4
20260506144835 62 178 1.0 7.0 0.04 0.05 0.05 88 1003.7
20260506144334 62 255 1.0 3.0 0.04 0.05 0.05 87 1003.9
20260506143834 62 191 1.0 3.0 0.04 0.05 0.05 87 1003.8
20260506143334 62 183 1.0 5.0 0.04 0.05 0.05 87 1003.9
20260506142335 62 245 1.0 6.0 0.01 0.02 0.02 85 1003.8
20260506140832 62 176 0.0 3.0 0.02 0.02 0.02 86 1003.6
20260506140332 62 89 1.0 2.0 0.02 0.02 0.02 85 1003.7
20260506135832 62 46 1.0 4.0 0.02 0.02 0.02 84 1003.6
20260506135327 62 185 1.0 4.0 0.01 0.01 0.01 84 1003.6
20260506134325 62 239 1.0 5.0 0.01 0.01 0.01 84 1003.6
20260506133825 62 133 1.0 5.0 0.01 0.01 0.01 84 1003.6
20260506133324 62 139 1.0 3.0 0.01 0.01 0.01 84 1003.7
20260506132321 63 149 1.0 5.0 0.01 0.01 0.01 81 1003.7
20260506131822 63 173 1.0 4.0 0.01 0.01 0.01 79 1003.6
20260506130819 63 0 1.0 5.0 0.00 0.00 0.00 80 1003.9
20260506130318 63 23 1.0 5.0 0.00 0.00 0.00 79 1003.8
20260506125819 63 208 1.0 5.0 0.00 0.00 0.00 79 1003.6
20260506125316 63 131 1.0 5.0 0.00 0.00 0.00 78 1003.5